Burley, ID

3:47 AM MDT on March 23, 2017 (GMT -0600)
Burley Municipal

Weather History for KBYI - January, 2013

Change the Weather History Date:

Friday, January 25, 2013

  Actual Average Record
Temperature  
Mean Temperature 39 °F 27 °F  
Max Temperature 45 °F 35 °F 58 °F (1953)
Min Temperature 32 °F 19 °F -27 °F (1949)
Degree Days  
Heating Degree Days 26 38  
Month to date heating degree days 1314 962  
Since 1 July heating degree days 3661 3842  
Cooling Degree Days 0 0  
Month to date cooling degree days 0 0  
Year to date cooling degree days 0 0  
Moisture  
Dew Point 33 °F    
Average Humidity 83    
Maximum Humidity 96    
Minimum Humidity 70    
Precipitation  
Precipitation 0.01 in 0.02 in 0.64 in (1997)
Month to date precipitation 0.08 0.76  
Year to date precipitation 0.08 0.76  
Sea Level Pressure  
Sea Level Pressure 30.18 in    
Wind  
Wind Speed 4 mph (South)    
Max Wind Speed 21 mph    
Max Gust Speed 25 mph    
Visibility 9 miles    
Events Rain    
T = Trace of Precipitation, MM = Missing Value Source: NWS Daily Summary

Daily Weather History Graph

Daily Weather History Graph

Search for Another Location

Airport or City:

Trip Planner

Search our weather history database for the weather conditions in past years. The results will help you decide how hot, cold, wet, or windy it might be!

Date:

Astronomy

Jan. 25, 2013 Rise Set
Actual Time 7:55 AM MST 5:40 PM MST
Civil Twilight 7:24 AM MST 6:10 PM MST
Nautical Twilight 6:50 AM MST 6:44 PM MST
Astronomical Twilight 6:17 AM MST 7:17 PM MST
Moon 4:41 PM MST (1/25) 6:37 AM MST (1/25)
Length of Visible Light 10h 45m
Length of Day
9h 44m
Waxing Gibbous, 98% of the Moon is Illuminated
Jan 25
Waxing Gibbous
Jan 26
Full
Feb 3
Last Quarter
Feb 10
New
Feb 17
First Quarter

Hourly Weather History & Observations

Time (MST) Temp. Windchill Dew Point Humidity Pressure Visibility Wind Dir Wind Speed Gust Speed Precip Events Conditions
12:53 AM 33.1 °F 30.0 °F 30.9 °F 92% 30.30 in 9.0 mi East 3.5 mph - N/A   Overcast
1:53 AM 33.1 °F - 30.9 °F 92% 30.28 in 8.0 mi Calm Calm - N/A   Overcast
2:53 AM 33.1 °F - 30.9 °F 92% 30.28 in 8.0 mi Calm Calm - N/A   Overcast
3:53 AM 32.0 °F - 30.9 °F 96% 30.27 in 7.0 mi Calm Calm - N/A   Overcast
4:53 AM 32.0 °F - 30.9 °F 96% 30.25 in 8.0 mi Calm Calm - N/A   Overcast
5:53 AM 33.1 °F 30.0 °F 30.9 °F 92% 30.27 in 8.0 mi NNW 3.5 mph - N/A   Overcast
6:53 AM 33.1 °F - 30.9 °F 92% 30.27 in 8.0 mi Calm Calm - N/A   Overcast
7:53 AM 32.0 °F 28.7 °F 30.9 °F 96% 30.28 in 10.0 mi NNE 3.5 mph - N/A   Overcast
8:53 AM 33.1 °F - 30.9 °F 92% 30.26 in 10.0 mi Calm Calm - N/A   Overcast
9:53 AM 36.0 °F - 32.0 °F 86% 30.25 in 10.0 mi Calm Calm - N/A   Mostly Cloudy
10:53 AM 39.9 °F - 33.1 °F 77% 30.24 in 10.0 mi Calm Calm - N/A   Mostly Cloudy
11:53 AM 41.0 °F - 34.0 °F 76% 30.21 in 10.0 mi Calm Calm - N/A   Overcast
12:53 PM 43.0 °F 40.3 °F 34.0 °F 71% 30.18 in 10.0 mi North 4.6 mph - N/A   Overcast
1:53 PM 43.0 °F 40.3 °F 34.0 °F 71% 30.15 in 10.0 mi ENE 4.6 mph - N/A   Overcast
2:53 PM 44.1 °F 41.5 °F 36.0 °F 73% 30.12 in 10.0 mi SW 4.6 mph - N/A   Overcast
3:53 PM 42.1 °F 37.1 °F 35.1 °F 76% 30.12 in 10.0 mi SSW 8.1 mph - N/A   Overcast
4:53 PM 41.0 °F - 35.1 °F 79% 30.12 in 10.0 mi Calm Calm - N/A   Overcast
5:53 PM 39.9 °F 37.8 °F 35.1 °F 83% 30.11 in 10.0 mi Variable 3.5 mph - 0.00 in Rain Light Rain
6:53 PM 39.0 °F 35.7 °F 35.1 °F 86% 30.10 in 10.0 mi South 4.6 mph - 0.00 in   Overcast
7:53 PM 39.0 °F 34.0 °F 34.0 °F 82% 30.08 in 10.0 mi SE 6.9 mph - N/A   Overcast
8:53 PM 39.9 °F 32.5 °F 35.1 °F 83% 30.06 in 10.0 mi SSW 12.7 mph - N/A   Overcast
9:53 PM 41.0 °F 32.8 °F 35.1 °F 79% 30.05 in 10.0 mi SSW 16.1 mph 25.3 mph N/A   Overcast
10:53 PM 39.9 °F 32.9 °F 35.1 °F 83% 30.04 in 10.0 mi SSW 11.5 mph - 0.01 in Rain Light Rain
11:53 PM 39.9 °F 32.1 °F 35.1 °F 83% 30.03 in 10.0 mi SSW 13.8 mph - 0.00 in   Overcast